Weather History for Mytilini, Greece

Change the Weather History Date:

Saturday, June 29, 2013

  Actual Average Record
Temperature  
Mean Temperature 79 °F -  
Max Temperature 87 °F 87 °F 93 °F (1998)
Min Temperature 71 °F 71 °F 62 °F (2011)
Cooling Degree Days 14    
Growing Degree Days 29 (Base 50)    
Moisture  
Dew Point 64 °F    
Average Humidity 58    
Maximum Humidity 78    
Minimum Humidity 35    
Precipitation  
Precipitation 0.00 in 0.00 in - ()
Sea Level Pressure  
Sea Level Pressure 29.80 in    
Wind  
Wind Speed 5 mph ()    
Max Wind Speed 8 mph    
Max Gust Speed -    
Visibility 8.5 miles    
Events      
Averages and records for this station are not official NWS values.
T = Trace of Precipitation, MM = Missing Value Source: Averaged Metar Reports

Daily Weather History Graph

Daily Weather History Graph

Search for Another Location

Airport:

Trip Planner

Search our weather history database for the weather conditions in past years. The results will help you decide how hot, cold, wet, or windy it might be!

Date:

Astronomy

Jun. 29, 2013 Rise Set
Actual Time 5:50 AM EEST 8:43 PM EEST
Civil Twilight 5:18 AM EEST 9:15 PM EEST
Nautical Twilight 4:37 AM EEST 9:55 PM EEST
Astronomical Twilight 3:51 AM EEST 10:42 PM EEST
Moon 12:05 AM EEST (6/29) 12:38 PM EEST (6/29)
Length of Visible Light 15h 57m
Length of Day
14h 52m
Waning Gibbous, 59% of the Moon is Illuminated
Jun 29
Waning Gibbous
Jun 30
Last Quarter
Jul 8
New
Jul 16
First Quarter
Jul 22
Full

Hourly Weather History & Observations

Time (EEST) Temp. Heat Index Dew Point Humidity Pressure Visibility Wind Dir Wind Speed Gust Speed Precip Events Conditions
12:50 AM 75.2 °F - 64.4 °F 69% 29.86 in - North - - N/A   Clear
1:50 AM 75.2 °F - 64.4 °F 69% 29.86 in - North - - N/A   Clear
2:50 AM 73.4 °F - 64.4 °F 73% 29.86 in - North - - N/A   Clear
3:00 AM 74 °F - 65 °F 66% 29.88 in 6 mi NW 8.1 mph - -  
3:50 AM 73.4 °F - 64.4 °F 73% 29.86 in - North - - N/A   Clear
4:20 AM 73.4 °F - 66.2 °F 78% 29.86 in - North - - N/A   Clear
4:50 AM 73.4 °F - 66.2 °F 78% 29.86 in - North - - N/A   Clear
5:20 AM 73.4 °F - 64.4 °F 73% 29.86 in - North - - N/A   Clear
5:50 AM 73.4 °F - 64.4 °F 73% 29.86 in - North - - N/A   Clear
6:20 AM 73.4 °F - 64.4 °F 73% 29.86 in - North - - N/A   Clear
6:50 AM 75.2 °F - 66.2 °F 73% 29.83 in - North - - N/A   Clear
7:20 AM 75.2 °F - 66.2 °F 73% 29.83 in - North - - N/A   Clear
7:50 AM 75.2 °F - 64.4 °F 69% 29.83 in - North - - N/A   Clear
8:20 AM 75.2 °F - 64.4 °F 69% 29.86 in - North - - N/A   Clear
8:50 AM 77.0 °F - 66.2 °F 69% 29.86 in - North - - N/A   Clear
9:00 AM 77 °F - 65 °F 59% 29.87 in 7 mi NNW 5.8 mph - -  
9:20 AM 77.0 °F - 66.2 °F 69% 29.86 in - North - - N/A   Clear
9:50 AM 78.8 °F - 66.2 °F 65% 29.86 in - North - - N/A   Clear
10:20 AM 78.8 °F - 66.2 °F 65% 29.86 in - North - - N/A   Clear
10:50 AM 80.6 °F 82.7 °F 66.2 °F 61% 29.83 in - North - - N/A   Clear
11:20 AM 80.6 °F 82.7 °F 66.2 °F 61% 29.83 in - North - - N/A   Clear
11:50 AM 80.6 °F 82.7 °F 66.2 °F 61% 29.83 in - North - - N/A   Clear
12:20 PM 80.6 °F 82.7 °F 66.2 °F 61% 29.83 in - North - - N/A   Clear
12:50 PM 82.4 °F 83.9 °F 64.4 °F 54% 29.80 in - North - - N/A   Clear
1:20 PM 82.4 °F 83.9 °F 64.4 °F 54% 29.80 in - North - - N/A   Clear
1:50 PM 84.2 °F 85.0 °F 62.6 °F 48% 29.80 in - North - - N/A   Clear
2:20 PM 86.0 °F 86.6 °F 62.6 °F 45% 29.80 in - North - - N/A   Clear
2:50 PM 86.0 °F 86.6 °F 62.6 °F 45% 29.80 in - North - - N/A   Clear
3:00 PM 86 °F - 63 °F 35% 29.80 in 12 mi NNW 8.1 mph - -  
3:20 PM 86.0 °F 86.6 °F 62.6 °F 45% 29.80 in - North - - N/A   Clear
3:50 PM 87.8 °F 89.4 °F 64.4 °F 46% 29.77 in - North - - N/A   Partly Cloudy
4:20 PM 87.8 °F 89.4 °F 64.4 °F 46% 29.77 in - North - - N/A   Partly Cloudy
4:50 PM 87.8 °F 89.4 °F 64.4 °F 46% 29.74 in - North - - N/A   Partly Cloudy
5:20 PM 87.8 °F 89.4 °F 64.4 °F 46% 29.74 in - North - - N/A   Partly Cloudy
5:50 PM 86.0 °F 87.3 °F 64.4 °F 48% 29.74 in - North - - N/A   Partly Cloudy
6:20 PM 86.0 °F 87.3 °F 64.4 °F 48% 29.74 in - North - - N/A   Partly Cloudy
6:50 PM 87.8 °F 88.5 °F 62.6 °F 43% 29.71 in - North - - N/A   Partly Cloudy
7:20 PM 87.8 °F 88.5 °F 62.6 °F 43% 29.71 in - North - - N/A   Partly Cloudy
7:50 PM 86.0 °F 86.6 °F 62.6 °F 45% 29.71 in - North - - N/A   Partly Cloudy
8:20 PM 84.2 °F 85.0 °F 62.6 °F 48% 29.71 in - North - - N/A   Partly Cloudy
8:50 PM 82.4 °F 82.9 °F 60.8 °F 48% 29.71 in - North - - N/A   Partly Cloudy
9:00 PM 82 °F - 60 °F 37% 29.72 in 9 mi WNW 4.6 mph - -   Scattered Clouds
9:20 PM 82.4 °F 82.9 °F 60.8 °F 48% 29.71 in - North - - N/A   Partly Cloudy
9:50 PM 80.6 °F 81.8 °F 62.6 °F 54% 29.71 in - North - - N/A   Partly Cloudy
10:20 PM 80.6 °F 81.8 °F 62.6 °F 54% 29.71 in - North - - N/A   Partly Cloudy
10:50 PM 80.6 °F 81.8 °F 62.6 °F 54% 29.71 in - North - - N/A   Partly Cloudy
11:20 PM 80.6 °F 81.8 °F 62.6 °F 54% 29.71 in - North - - N/A   Partly Cloudy
11:50 PM 78.8 °F - 62.6 °F 57% 29.71 in - North - - N/A   Partly Cloudy